Time,TemperatureF,DewpointF,PressureIn,WindDirection,WindDirectionDegrees,WindSpeedMPH,WindSpeedGustMPH,Humidity,HourlyPrecipIn,Conditions,Clouds,dailyrainin,SoftwareType,DateUTC
2013-01-20 00:03:00,3.8,-4.1,30.48,West,270,6.9,9.2,69,0.00,,,0.00,WUHU216HW,2013-01-20 06:03:00,
2013-01-20 00:08:00,3.8,-4.1,30.49,WNW,293,8.9,13.2,69,0.00,,,0.00,WUHU216HW,2013-01-20 06:08:00,
2013-01-20 00:13:00,3.8,-4.1,30.49,West,270,6.5,13.2,69,0.00,,,0.00,WUHU216HW,2013-01-20 06:13:00,
2013-01-20 00:18:00,3.8,-4.1,30.49,NNW,338,6.5,9.8,69,0.00,,,0.00,WUHU216HW,2013-01-20 06:18:00,
2013-01-20 00:23:00,3.6,-3.9,30.49,WNW,293,6.3,8.7,70,0.00,,,0.00,WUHU216HW,2013-01-20 06:23:00,
2013-01-20 00:28:00,3.4,-4.1,30.49,NW,315,6.3,11.4,70,0.00,,,0.00,WUHU216HW,2013-01-20 06:28:00,
2013-01-20 00:33:00,3.4,-4.1,30.49,West,270,3.6,11.4,70,0.00,,,0.00,WUHU216HW,2013-01-20 06:33:00,
2013-01-20 00:38:00,3.4,-4.1,30.49,West,270,9.6,10.1,70,0.00,,,0.00,WUHU216HW,2013-01-20 06:38:00,
2013-01-20 00:43:00,3.2,-4.3,30.49,West,270,11.2,11.2,70,0.00,,,0.00,WUHU216HW,2013-01-20 06:43:00,
2013-01-20 00:48:00,3.2,-4.3,30.49,North,0,3.4,11.9,70,0.00,,,0.00,WUHU216HW,2013-01-20 06:48:00,
2013-01-20 00:53:00,3.2,-4.3,30.49,NNW,338,4.9,11.9,70,0.00,,,0.00,WUHU216HW,2013-01-20 06:53:00,
2013-01-20 00:58:00,3.2,-4.3,30.49,WNW,293,5.4,8.3,70,0.00,,,0.00,WUHU216HW,2013-01-20 06:58:00,
2013-01-20 01:03:00,3.2,-4.3,30.49,North,0,2.9,9.8,70,0.00,,,0.00,WUHU216HW,2013-01-20 07:03:00,
2013-01-20 01:08:00,3.1,-4.5,30.50,NW,315,3.8,9.8,70,0.00,,,0.00,WUHU216HW,2013-01-20 07:08:00,
2013-01-20 01:13:00,3.1,-4.5,30.50,West,270,4.5,9.6,70,0.00,,,0.00,WUHU216HW,2013-01-20 07:13:00,
2013-01-20 01:18:00,3.1,-4.5,30.50,NNW,338,4.3,6.9,70,0.00,,,0.00,WUHU216HW,2013-01-20 07:18:00,
2013-01-20 01:23:00,3.1,-4.5,30.50,WNW,293,5.4,7.6,70,0.00,,,0.00,WUHU216HW,2013-01-20 07:23:00,
2013-01-20 01:28:00,3.1,-4.5,30.50,NW,315,1.8,10.7,70,0.00,,,0.00,WUHU216HW,2013-01-20 07:28:00,
2013-01-20 01:33:00,3.1,-4.5,30.50,West,270,5.4,10.7,70,0.00,,,0.00,WUHU216HW,2013-01-20 07:33:00,
2013-01-20 01:38:00,3.1,-4.5,30.50,WSW,248,4.0,9.2,70,0.00,,,0.00,WUHU216HW,2013-01-20 07:38:00,
2013-01-20 01:43:00,3.1,-4.5,30.50,NW,315,5.4,9.2,70,0.00,,,0.00,WUHU216HW,2013-01-20 07:43:00,
2013-01-20 01:48:00,2.9,-4.7,30.50,WSW,248,4.9,11.4,70,0.00,,,0.00,WUHU216HW,2013-01-20 07:48:00,
2013-01-20 01:53:00,2.9,-4.7,30.51,NW,315,6.5,11.4,70,0.00,,,0.00,WUHU216HW,2013-01-20 07:53:00,
2013-01-20 01:58:00,2.7,-4.9,30.51,WNW,293,13.4,13.4,70,0.00,,,0.00,WUHU216HW,2013-01-20 07:58:00,
2013-01-20 02:03:00,2.7,-4.9,30.51,West,270,9.2,13.4,70,0.00,,,0.00,WUHU216HW,2013-01-20 08:03:00,
2013-01-20 02:08:00,2.7,-5.2,30.51,NW,315,6.7,13.4,69,0.00,,,0.00,WUHU216HW,2013-01-20 08:08:00,
2013-01-20 02:13:00,2.7,-4.9,30.52,West,270,5.1,10.5,70,0.00,,,0.00,WUHU216HW,2013-01-20 08:13:00,
2013-01-20 02:18:00,2.5,-5.4,30.52,West,270,8.1,8.7,69,0.00,,,0.00,WUHU216HW,2013-01-20 08:18:00,
2013-01-20 02:23:00,2.5,-5.4,30.52,NNW,338,6.7,14.3,69,0.00,,,0.00,WUHU216HW,2013-01-20 08:23:00,
2013-01-20 02:28:00,2.5,-5.4,30.53,NNW,338,5.1,14.3,69,0.00,,,0.00,WUHU216HW,2013-01-20 08:28:00,
2013-01-20 02:33:00,2.5,-5.4,30.53,NW,315,3.1,8.3,69,0.00,,,0.00,WUHU216HW,2013-01-20 08:33:00,
2013-01-20 02:38:00,2.5,-5.4,30.53,NNE,23,8.5,8.5,69,0.00,,,0.00,WUHU216HW,2013-01-20 08:38:00,
2013-01-20 02:43:00,2.5,-5.4,30.53,NW,315,4.7,8.7,69,0.00,,,0.00,WUHU216HW,2013-01-20 08:43:00,
2013-01-20 02:48:00,2.5,-5.0,30.53,SW,225,6.0,8.7,70,0.00,,,0.00,WUHU216HW,2013-01-20 08:48:00,
2013-01-20 02:53:00,2.5,-5.0,30.53,WSW,248,3.8,7.8,70,0.00,,,0.00,WUHU216HW,2013-01-20 08:53:00,
2013-01-20 02:58:00,2.5,-5.0,30.54,WNW,293,11.0,11.0,70,0.00,,,0.00,WUHU216HW,2013-01-20 08:58:00,
2013-01-20 03:03:00,2.5,-5.0,30.54,WNW,293,9.4,11.0,70,0.00,,,0.00,WUHU216HW,2013-01-20 09:03:00,
2013-01-20 03:08:00,2.5,-5.4,30.54,West,270,6.7,11.6,69,0.00,,,0.00,WUHU216HW,2013-01-20 09:08:00,
2013-01-20 03:13:00,2.5,-5.0,30.55,WNW,293,4.0,11.6,70,0.00,,,0.00,WUHU216HW,2013-01-20 09:13:00,
2013-01-20 03:18:00,2.5,-5.0,30.55,NNW,338,6.7,9.2,70,0.00,,,0.00,WUHU216HW,2013-01-20 09:18:00,
2013-01-20 03:23:00,2.5,-5.0,30.55,West,270,1.8,8.1,70,0.00,,,0.00,WUHU216HW,2013-01-20 09:23:00,
2013-01-20 03:28:00,2.5,-5.0,30.55,WNW,293,13.4,13.4,70,0.00,,,0.00,WUHU216HW,2013-01-20 09:28:00,
2013-01-20 03:33:00,2.5,-5.0,30.55,West,270,4.5,13.4,70,0.00,,,0.00,WUHU216HW,2013-01-20 09:33:00,
2013-01-20 03:38:00,2.5,-5.0,30.55,WSW,248,6.0,13.4,70,0.00,,,0.00,WUHU216HW,2013-01-20 09:38:00,
2013-01-20 03:43:00,2.5,-5.0,30.55,West,270,4.9,10.5,70,0.00,,,0.00,WUHU216HW,2013-01-20 09:43:00,
2013-01-20 03:48:00,2.5,-5.0,30.55,West,270,4.5,10.5,70,0.00,,,0.00,WUHU216HW,2013-01-20 09:48:00,
2013-01-20 03:53:00,2.5,-5.0,30.55,West,270,3.4,8.1,70,0.00,,,0.00,WUHU216HW,2013-01-20 09:53:00,
2013-01-20 03:58:00,2.3,-5.2,30.55,West,270,7.4,8.7,70,0.00,,,0.00,WUHU216HW,2013-01-20 09:58:00,
2013-01-20 04:03:00,2.3,-5.2,30.55,West,270,8.3,8.7,70,0.00,,,0.00,WUHU216HW,2013-01-20 10:03:00,
2013-01-20 04:08:00,2.2,-5.4,30.55,NW,315,4.5,8.3,70,0.00,,,0.00,WUHU216HW,2013-01-20 10:08:00,
2013-01-20 04:13:00,2.2,-5.4,30.55,North,0,2.9,8.3,70,0.00,,,0.00,WUHU216HW,2013-01-20 10:13:00,
2013-01-20 04:18:00,2.2,-5.4,30.55,WNW,293,1.1,8.3,70,0.00,,,0.00,WUHU216HW,2013-01-20 10:18:00,
2013-01-20 04:23:00,2.2,-5.4,30.54,WNW,293,1.8,8.3,70,0.00,,,0.00,WUHU216HW,2013-01-20 10:23:00,
2013-01-20 04:28:00,2.2,-5.4,30.54,WNW,293,3.4,7.6,70,0.00,,,0.00,WUHU216HW,2013-01-20 10:28:00,
2013-01-20 04:33:00,2.2,-5.4,30.54,West,270,10.3,10.3,70,0.00,,,0.00,WUHU216HW,2013-01-20 10:33:00,
2013-01-20 04:38:00,2.2,-5.4,30.54,NNW,338,2.0,10.3,70,0.00,,,0.00,WUHU216HW,2013-01-20 10:38:00,
2013-01-20 04:43:00,2.2,-5.4,30.53,NW,315,2.0,10.3,70,0.00,,,0.00,WUHU216HW,2013-01-20 10:43:00,
2013-01-20 04:48:00,2.2,-5.4,30.53,West,270,5.4,8.7,70,0.00,,,0.00,WUHU216HW,2013-01-20 10:48:00,
2013-01-20 04:53:00,2.2,-5.4,30.53,NW,315,2.5,8.7,70,0.00,,,0.00,WUHU216HW,2013-01-20 10:53:00,
2013-01-20 04:58:00,2.2,-5.4,30.53,WNW,293,2.7,6.5,70,0.00,,,0.00,WUHU216HW,2013-01-20 10:58:00,
2013-01-20 05:03:00,2.2,-5.1,30.54,WNW,293,2.7,6.5,71,0.00,,,0.00,WUHU216HW,2013-01-20 11:03:00,
2013-01-20 05:08:00,2.2,-5.1,30.54,NNW,338,3.4,6.5,71,0.00,,,0.00,WUHU216HW,2013-01-20 11:08:00,
2013-01-20 05:13:00,2.2,-5.1,30.54,NNW,338,3.1,6.3,71,0.00,,,0.00,WUHU216HW,2013-01-20 11:13:00,
2013-01-20 05:18:00,2.2,-5.1,30.54,West,270,3.6,6.3,71,0.00,,,0.00,WUHU216HW,2013-01-20 11:18:00,
2013-01-20 05:23:00,2.2,-5.1,30.54,NNW,338,4.3,6.9,71,0.00,,,0.00,WUHU216HW,2013-01-20 11:23:00,
2013-01-20 05:28:00,2.2,-5.1,30.54,WNW,293,5.8,6.9,71,0.00,,,0.00,WUHU216HW,2013-01-20 11:28:00,
2013-01-20 05:33:00,2.2,-5.1,30.55,NW,315,2.0,6.5,71,0.00,,,0.00,WUHU216HW,2013-01-20 11:33:00,
2013-01-20 05:38:00,2.2,-5.1,30.54,NW,315,2.5,6.5,71,0.00,,,0.00,WUHU216HW,2013-01-20 11:38:00,
2013-01-20 05:43:00,2.2,-5.1,30.55,WSW,248,4.7,6.3,71,0.00,,,0.00,WUHU216HW,2013-01-20 11:43:00,
2013-01-20 05:48:00,2.2,-5.1,30.55,WNW,293,2.7,4.7,71,0.00,,,0.00,WUHU216HW,2013-01-20 11:48:00,
2013-01-20 05:53:00,2.3,-4.9,30.55,WSW,248,5.1,5.1,71,0.00,,,0.00,WUHU216HW,2013-01-20 11:53:00,
2013-01-20 05:58:00,2.3,-4.9,30.56,West,270,6.5,6.7,71,0.00,,,0.00,WUHU216HW,2013-01-20 11:58:00,
2013-01-20 06:03:00,2.3,-4.9,30.55,West,270,2.9,6.7,71,0.00,,,0.00,WUHU216HW,2013-01-20 12:03:00,
2013-01-20 06:08:00,2.3,-4.9,30.55,West,270,4.5,6.5,71,0.00,,,0.00,WUHU216HW,2013-01-20 12:08:00,
2013-01-20 06:13:00,2.3,-4.9,30.55,West,270,3.4,5.8,71,0.00,,,0.00,WUHU216HW,2013-01-20 12:13:00,
2013-01-20 06:18:00,2.3,-4.9,30.55,NW,315,2.9,5.4,71,0.00,,,0.00,WUHU216HW,2013-01-20 12:18:00,
2013-01-20 06:23:00,2.3,-4.9,30.55,WSW,248,6.9,6.9,71,0.00,,,0.00,WUHU216HW,2013-01-20 12:23:00,
2013-01-20 06:28:00,2.3,-4.9,30.55,WNW,293,1.8,6.9,71,0.00,,,0.00,WUHU216HW,2013-01-20 12:28:00,
2013-01-20 06:33:00,2.3,-4.9,30.55,West,270,4.0,6.9,71,0.00,,,0.00,WUHU216HW,2013-01-20 12:33:00,
2013-01-20 06:38:00,2.3,-4.9,30.55,West,270,4.7,6.9,71,0.00,,,0.00,WUHU216HW,2013-01-20 12:38:00,
2013-01-20 06:43:00,2.3,-4.9,30.55,West,270,2.5,6.9,71,0.00,,,0.00,WUHU216HW,2013-01-20 12:43:00,
2013-01-20 06:48:00,2.3,-4.9,30.55,WNW,293,1.8,6.7,71,0.00,,,0.00,WUHU216HW,2013-01-20 12:48:00,
2013-01-20 06:53:00,2.3,-4.9,30.55,NW,315,1.1,6.7,71,0.00,,,0.00,WUHU216HW,2013-01-20 12:53:00,
2013-01-20 06:58:00,2.5,-4.8,30.55,WNW,293,1.8,4.5,71,0.00,,,0.00,WUHU216HW,2013-01-20 12:58:00,
2013-01-20 07:03:00,2.3,-4.9,30.55,NNW,338,1.8,5.6,71,0.00,,,0.00,WUHU216HW,2013-01-20 13:03:00,
2013-01-20 07:08:00,2.5,-4.8,30.55,NW,315,1.8,5.6,71,0.00,,,0.00,WUHU216HW,2013-01-20 13:08:00,
2013-01-20 07:13:00,2.5,-4.8,30.55,West,270,2.5,3.1,71,0.00,,,0.00,WUHU216HW,2013-01-20 13:13:00,
2013-01-20 07:18:00,2.5,-4.8,30.55,NW,315,1.8,4.7,71,0.00,,,0.00,WUHU216HW,2013-01-20 13:18:00,
2013-01-20 07:23:00,2.5,-4.8,30.55,West,270,2.9,5.6,71,0.00,,,0.00,WUHU216HW,2013-01-20 13:23:00,
2013-01-20 07:28:00,2.5,-4.8,30.55,West,270,3.4,5.6,71,0.00,,,0.00,WUHU216HW,2013-01-20 13:28:00,
2013-01-20 07:33:00,2.5,-4.8,30.55,WNW,293,3.8,5.8,71,0.00,,,0.00,WUHU216HW,2013-01-20 13:33:00,
2013-01-20 07:38:00,2.5,-4.8,30.55,NW,315,2.9,5.8,71,0.00,,,0.00,WUHU216HW,2013-01-20 13:38:00,
2013-01-20 07:43:00,2.5,-4.8,30.56,WSW,248,3.4,5.1,71,0.00,,,0.00,WUHU216HW,2013-01-20 13:43:00,
2013-01-20 07:48:00,2.5,-4.8,30.55,WNW,293,0.9,5.1,71,0.00,,,0.00,WUHU216HW,2013-01-20 13:48:00,
2013-01-20 07:53:00,2.5,-4.8,30.56,West,270,2.5,4.7,71,0.00,,,0.00,WUHU216HW,2013-01-20 13:53:00,
2013-01-20 07:58:00,2.7,-4.6,30.55,North,0,2.5,3.6,71,0.00,,,0.00,WUHU216HW,2013-01-20 13:58:00,
2013-01-20 08:03:00,2.7,-4.6,30.55,WSW,248,1.3,3.6,71,0.00,,,0.00,WUHU216HW,2013-01-20 14:03:00,
2013-01-20 08:08:00,2.9,-4.4,30.56,NW,315,2.2,2.9,71,0.00,,,0.00,WUHU216HW,2013-01-20 14:08:00,
2013-01-20 08:13:00,3.1,-4.2,30.57,West,270,2.2,3.6,71,0.00,,,0.00,WUHU216HW,2013-01-20 14:13:00,
2013-01-20 08:18:00,3.1,-4.2,30.57,West,270,2.7,7.6,71,0.00,,,0.00,WUHU216HW,2013-01-20 14:18:00,
2013-01-20 08:23:00,3.1,-4.2,30.57,WSW,248,8.3,8.3,71,0.00,,,0.00,WUHU216HW,2013-01-20 14:23:00,
2013-01-20 08:28:00,3.1,-4.5,30.57,NW,315,1.8,8.3,70,0.00,,,0.00,WUHU216HW,2013-01-20 14:28:00,
2013-01-20 08:33:00,3.2,-4.3,30.58,NNW,338,1.6,7.4,70,0.00,,,0.00,WUHU216HW,2013-01-20 14:33:00,
2013-01-20 08:38:00,3.2,-4.3,30.58,WNW,293,5.4,7.2,70,0.00,,,0.00,WUHU216HW,2013-01-20 14:38:00,
2013-01-20 08:43:00,3.2,-4.3,30.58,NNW,338,2.2,7.2,70,0.00,,,0.00,WUHU216HW,2013-01-20 14:43:00,
2013-01-20 08:48:00,3.2,-4.3,30.58,WNW,293,2.2,7.4,70,0.00,,,0.00,WUHU216HW,2013-01-20 14:48:00,
2013-01-20 08:53:00,3.4,-4.1,30.58,NNW,338,1.6,7.4,70,0.00,,,0.00,WUHU216HW,2013-01-20 14:53:00,
2013-01-20 08:58:00,3.4,-4.1,30.58,West,270,4.7,6.0,70,0.00,,,0.00,WUHU216HW,2013-01-20 14:58:00,
2013-01-20 09:03:00,3.4,-4.1,30.59,NNW,338,3.4,9.2,70,0.00,,,0.00,WUHU216HW,2013-01-20 15:03:00,
2013-01-20 09:08:00,3.6,-3.9,30.59,West,270,2.2,9.2,70,0.00,,,0.00,WUHU216HW,2013-01-20 15:08:00,
2013-01-20 09:13:00,3.8,-3.9,30.59,West,270,1.8,6.5,70,0.00,,,0.00,WUHU216HW,2013-01-20 15:13:00,
2013-01-20 09:18:00,4.0,-3.7,30.59,NW,315,2.7,8.1,70,0.00,,,0.00,WUHU216HW,2013-01-20 15:18:00,
2013-01-20 09:23:00,4.0,-3.7,30.59,West,270,5.6,8.1,70,0.00,,,0.00,WUHU216HW,2013-01-20 15:23:00,
2013-01-20 09:28:00,4.0,-3.7,30.58,SW,225,6.3,8.1,70,0.00,,,0.00,WUHU216HW,2013-01-20 15:28:00,
2013-01-20 09:33:00,4.1,-3.5,30.58,West,270,2.2,7.2,70,0.00,,,0.00,WUHU216HW,2013-01-20 15:33:00,
2013-01-20 09:34:00,4.3,-3.3,30.58,WSW,248,3.4,3.4,70,0.00,,,0.00,WUHU216HW,2013-01-20 15:34:00,
2013-01-20 09:38:00,4.3,-3.3,30.58,WSW,248,3.4,6.3,70,0.00,,,0.00,WUHU216HW,2013-01-20 15:38:00,
2013-01-20 09:43:00,4.3,-3.3,30.58,WSW,248,3.4,3.4,70,0.00,,,0.00,WUHU216HW,2013-01-20 15:43:00,
2013-01-20 10:00:00,4.7,-3.3,30.61,NW,315,4.7,4.7,69,0.00,,,0.00,WUHU216HW,2013-01-20 16:00:00,
2013-01-20 10:05:00,4.7,-3.3,30.61,West,270,4.7,6.5,69,0.00,,,0.00,WUHU216HW,2013-01-20 16:05:00,
2013-01-20 10:10:00,4.5,-4.1,30.62,NW,315,3.4,9.8,67,0.00,,,0.00,WUHU216HW,2013-01-20 16:10:00,
2013-01-20 10:15:00,4.7,-3.7,30.62,NNW,338,4.3,9.8,68,0.00,,,0.00,WUHU216HW,2013-01-20 16:15:00,
2013-01-20 10:20:00,4.9,-3.9,30.62,North,0,4.0,8.9,67,0.00,,,0.00,WUHU216HW,2013-01-20 16:20:00,
2013-01-20 10:25:00,4.7,-3.9,30.61,North,0,1.8,9.2,67,0.00,,,0.00,WUHU216HW,2013-01-20 16:25:00,
2013-01-20 10:30:00,4.9,-3.9,30.61,NW,315,1.8,9.2,67,0.00,,,0.00,WUHU216HW,2013-01-20 16:30:00,
2013-01-20 10:35:00,4.9,-3.9,30.61,West,270,6.7,8.5,67,0.00,,,0.00,WUHU216HW,2013-01-20 16:35:00,
2013-01-20 10:40:00,4.9,-4.1,30.62,West,270,6.7,9.2,66,0.00,,,0.00,WUHU216HW,2013-01-20 16:40:00,
2013-01-20 10:45:00,5.0,-3.7,30.62,West,270,6.5,9.2,67,0.00,,,0.00,WUHU216HW,2013-01-20 16:45:00,
2013-01-20 10:50:00,5.4,-3.3,30.62,WSW,248,4.5,8.3,67,0.00,,,0.00,WUHU216HW,2013-01-20 16:50:00,
2013-01-20 10:55:00,5.4,-3.6,30.62,West,270,6.5,9.8,66,0.00,,,0.00,WUHU216HW,2013-01-20 16:55:00,
2013-01-20 11:00:00,5.4,-3.3,30.62,WNW,293,7.6,12.1,67,0.00,,,0.00,WUHU216HW,2013-01-20 17:00:00,
2013-01-20 11:05:00,5.6,-3.1,30.62,WNW,293,5.4,12.5,67,0.00,,,0.00,WUHU216HW,2013-01-20 17:05:00,
2013-01-20 11:10:00,5.6,-3.4,30.62,West,270,7.6,12.5,66,0.00,,,0.00,WUHU216HW,2013-01-20 17:10:00,
2013-01-20 11:15:00,6.1,-2.6,30.62,West,270,4.0,9.8,67,0.00,,,0.00,WUHU216HW,2013-01-20 17:15:00,
2013-01-20 11:20:00,6.1,-2.6,30.62,West,270,4.0,9.8,67,0.00,,,0.00,WUHU216HW,2013-01-20 17:20:00,
2013-01-20 11:25:00,6.3,-2.4,30.61,North,0,2.7,9.8,67,0.00,,,0.00,WUHU216HW,2013-01-20 17:25:00,
2013-01-20 11:30:00,6.5,-2.5,30.65,NNW,338,3.8,9.6,66,0.00,,,0.00,WUHU216HW,2013-01-20 17:30:00,
2013-01-20 11:35:00,6.7,-2.3,30.65,SW,225,5.4,9.6,66,0.00,,,0.00,WUHU216HW,2013-01-20 17:35:00,
2013-01-20 11:38:00,6.8,-2.1,30.64,NW,315,4.9,4.9,66,0.00,,,0.00,WUHU216HW,2013-01-20 17:38:00,
2013-01-20 11:40:00,6.8,-2.1,30.64,NW,315,4.9,7.8,66,0.00,,,0.00,WUHU216HW,2013-01-20 17:40:00,
2013-01-20 11:45:00,6.8,-2.1,30.64,NW,315,4.9,7.8,66,0.00,,,0.00,WUHU216HW,2013-01-20 17:45:00,
2013-01-20 12:00:00,7.4,-1.7,30.64,WSW,248,6.9,6.9,66,0.00,,,0.00,WUHU216HW,2013-01-20 18:00:00,
2013-01-20 12:05:00,7.6,-1.5,30.63,West,270,4.0,8.7,66,0.00,,,0.00,WUHU216HW,2013-01-20 18:05:00,
2013-01-20 12:10:00,7.6,-1.5,30.63,West,270,9.2,9.2,66,0.00,,,0.00,WUHU216HW,2013-01-20 18:10:00,
2013-01-20 12:15:00,7.9,-1.8,30.63,West,270,10.1,10.1,64,0.00,,,0.00,WUHU216HW,2013-01-20 18:15:00,
2013-01-20 12:20:00,7.9,-1.8,30.62,WSW,248,7.8,11.4,64,0.00,,,0.00,WUHU216HW,2013-01-20 18:20:00,
2013-01-20 12:25:00,8.1,-1.3,30.62,SW,225,1.1,11.4,65,0.00,,,0.00,WUHU216HW,2013-01-20 18:25:00,
2013-01-20 12:30:00,8.3,-1.5,30.62,West,270,6.7,11.4,64,0.00,,,0.00,WUHU216HW,2013-01-20 18:30:00,
2013-01-20 12:35:00,8.3,-1.5,30.62,NW,315,6.9,11.4,64,0.00,,,0.00,WUHU216HW,2013-01-20 18:35:00,
2013-01-20 12:40:00,8.5,-1.3,30.62,NNW,338,4.7,9.2,64,0.00,,,0.00,WUHU216HW,2013-01-20 18:40:00,
2013-01-20 12:45:00,8.6,-1.2,30.62,WNW,293,6.9,9.2,64,0.00,,,0.00,WUHU216HW,2013-01-20 18:45:00,
2013-01-20 12:50:00,9.0,-0.8,30.61,NW,315,2.0,6.9,64,0.00,,,0.00,WUHU216HW,2013-01-20 18:50:00,
2013-01-20 12:55:00,9.0,-0.8,30.61,WNW,293,6.3,11.4,64,0.00,,,0.00,WUHU216HW,2013-01-20 18:55:00,
2013-01-20 13:00:00,8.8,-1.0,30.61,NW,315,1.8,11.4,64,0.00,,,0.00,WUHU216HW,2013-01-20 19:00:00,
2013-01-20 13:05:00,8.8,-1.0,30.61,WSW,248,9.2,9.2,64,0.00,,,0.00,WUHU216HW,2013-01-20 19:05:00,
2013-01-20 13:10:00,8.6,-1.2,30.61,WSW,248,6.9,9.6,64,0.00,,,0.00,WUHU216HW,2013-01-20 19:10:00,
2013-01-20 13:15:00,8.6,-1.2,30.61,West,270,7.6,12.3,64,0.00,,,0.00,WUHU216HW,2013-01-20 19:15:00,
2013-01-20 13:20:00,8.8,-1.0,30.60,West,270,5.6,12.3,64,0.00,,,0.00,WUHU216HW,2013-01-20 19:20:00,
2013-01-20 13:25:00,9.0,-0.8,30.60,NW,315,6.0,13.0,64,0.00,,,0.00,WUHU216HW,2013-01-20 19:25:00,
2013-01-20 13:30:00,8.8,-1.0,30.60,WNW,293,7.8,13.0,64,0.00,,,0.00,WUHU216HW,2013-01-20 19:30:00,
2013-01-20 13:35:00,9.0,-0.8,30.60,WSW,248,6.9,10.5,64,0.00,,,0.00,WUHU216HW,2013-01-20 19:35:00,
2013-01-20 13:40:00,9.0,-0.8,30.59,NNW,338,5.4,10.3,64,0.00,,,0.00,WUHU216HW,2013-01-20 19:40:00,
2013-01-20 13:45:00,9.4,-0.4,30.59,NNW,338,3.1,10.3,64,0.00,,,0.00,WUHU216HW,2013-01-20 19:45:00,
2013-01-20 13:50:00,9.5,-0.3,30.58,WNW,293,4.5,10.7,64,0.00,,,0.00,WUHU216HW,2013-01-20 19:50:00,
2013-01-20 13:55:00,9.4,-0.4,30.58,WNW,293,4.0,10.7,64,0.00,,,0.00,WUHU216HW,2013-01-20 19:55:00,
2013-01-20 14:00:00,9.5,-0.3,30.58,NW,315,4.3,7.6,64,0.00,,,0.00,WUHU216HW,2013-01-20 20:00:00,
2013-01-20 14:05:00,9.7,-0.1,30.58,WSW,248,6.3,6.5,64,0.00,,,0.00,WUHU216HW,2013-01-20 20:05:00,
2013-01-20 14:10:00,9.7,-0.1,30.58,WNW,293,2.2,10.3,64,0.00,,,0.00,WUHU216HW,2013-01-20 20:10:00,
2013-01-20 14:15:00,9.7,-0.1,30.58,West,270,2.5,10.3,64,0.00,,,0.00,WUHU216HW,2013-01-20 20:15:00,
2013-01-20 14:20:00,9.9,0.1,30.58,West,270,6.3,11.2,64,0.00,,,0.00,WUHU216HW,2013-01-20 20:20:00,
2013-01-20 14:25:00,10.1,0.5,30.57,WNW,293,3.1,11.2,65,0.00,,,0.00,WUHU216HW,2013-01-20 20:25:00,
2013-01-20 14:30:00,9.9,0.4,30.57,NW,315,3.4,9.4,65,0.00,,,0.00,WUHU216HW,2013-01-20 20:30:00,
2013-01-20 14:35:00,9.9,0.4,30.57,SW,225,3.6,8.5,65,0.00,,,0.00,WUHU216HW,2013-01-20 20:35:00,
2013-01-20 14:40:00,9.9,0.4,30.57,NW,315,4.7,6.9,65,0.00,,,0.00,WUHU216HW,2013-01-20 20:40:00,
2013-01-20 14:45:00,10.1,0.5,30.57,WSW,248,6.3,7.6,65,0.00,,,0.00,WUHU216HW,2013-01-20 20:45:00,
2013-01-20 14:50:00,10.3,0.7,30.57,West,270,7.2,8.3,65,0.00,,,0.00,WUHU216HW,2013-01-20 20:50:00,
2013-01-20 14:55:00,10.1,0.5,30.57,West,270,6.5,10.5,65,0.00,,,0.00,WUHU216HW,2013-01-20 20:55:00,
2013-01-20 15:00:00,9.9,0.4,30.57,NW,315,5.4,10.7,65,0.00,,,0.00,WUHU216HW,2013-01-20 21:00:00,
2013-01-20 15:05:00,9.9,0.4,30.57,WSW,248,5.4,10.7,65,0.00,,,0.00,WUHU216HW,2013-01-20 21:05:00,
2013-01-20 15:10:00,9.9,0.4,30.57,West,270,4.0,10.5,65,0.00,,,0.00,WUHU216HW,2013-01-20 21:10:00,
2013-01-20 15:15:00,10.1,0.5,30.56,NW,315,3.8,8.7,65,0.00,,,0.00,WUHU216HW,2013-01-20 21:15:00,
2013-01-20 15:20:00,10.1,0.5,30.57,WNW,293,6.9,8.7,65,0.00,,,0.00,WUHU216HW,2013-01-20 21:20:00,
2013-01-20 15:25:00,10.1,0.9,30.57,West,270,6.3,8.7,66,0.00,,,0.00,WUHU216HW,2013-01-20 21:25:00,
2013-01-20 15:30:00,10.3,1.1,30.57,WSW,248,3.4,8.7,66,0.00,,,0.00,WUHU216HW,2013-01-20 21:30:00,
2013-01-20 15:35:00,10.3,1.1,30.57,West,270,6.3,9.8,66,0.00,,,0.00,WUHU216HW,2013-01-20 21:35:00,
2013-01-20 15:40:00,10.1,0.5,30.57,West,270,4.0,10.1,65,0.00,,,0.00,WUHU216HW,2013-01-20 21:40:00,
2013-01-20 15:45:00,9.9,0.7,30.57,SSW,203,4.7,10.1,66,0.00,,,0.00,WUHU216HW,2013-01-20 21:45:00,
2013-01-20 15:50:00,9.7,0.5,30.57,NW,315,9.4,12.8,66,0.00,,,0.00,WUHU216HW,2013-01-20 21:50:00,
2013-01-20 15:55:00,9.7,0.9,30.57,West,270,11.4,12.8,67,0.00,,,0.00,WUHU216HW,2013-01-20 21:55:00,
2013-01-20 16:00:00,9.7,0.9,30.57,NW,315,6.3,11.4,67,0.00,,,0.00,WUHU216HW,2013-01-20 22:00:00,
2013-01-20 16:05:00,9.5,0.7,30.57,WNW,293,6.3,12.1,67,0.00,,,0.00,WUHU216HW,2013-01-20 22:05:00,
2013-01-20 16:10:00,9.4,0.5,30.56,NNW,338,11.4,12.1,67,0.00,,,0.00,WUHU216HW,2013-01-20 22:10:00,
2013-01-20 16:15:00,9.4,0.9,30.56,WNW,293,6.7,12.1,68,0.00,,,0.00,WUHU216HW,2013-01-20 22:15:00,
2013-01-20 16:20:00,9.4,0.5,30.56,WSW,248,6.7,12.8,67,0.00,,,0.00,WUHU216HW,2013-01-20 22:20:00,
2013-01-20 16:25:00,9.4,0.5,30.56,WNW,293,4.0,12.8,67,0.00,,,0.00,WUHU216HW,2013-01-20 22:25:00,
2013-01-20 16:30:00,9.4,0.2,30.56,WNW,293,7.4,11.9,66,0.00,,,0.00,WUHU216HW,2013-01-20 22:30:00,
2013-01-20 16:35:00,9.4,0.5,30.56,WSW,248,8.7,11.9,67,0.00,,,0.00,WUHU216HW,2013-01-20 22:35:00,
2013-01-20 16:40:00,9.4,0.5,30.56,WNW,293,8.1,11.6,67,0.00,,,0.00,WUHU216HW,2013-01-20 22:40:00,
2013-01-20 16:45:00,9.2,0.7,30.56,North,0,2.2,11.6,68,0.00,,,0.00,WUHU216HW,2013-01-20 22:45:00,
2013-01-20 16:50:00,9.2,0.7,30.56,West,270,3.4,9.4,68,0.00,,,0.00,WUHU216HW,2013-01-20 22:50:00,
2013-01-20 16:55:00,9.2,1.1,30.56,WNW,293,3.4,9.6,69,0.00,,,0.00,WUHU216HW,2013-01-20 22:55:00,
2013-01-20 17:00:00,9.2,1.4,30.55,WSW,248,8.1,10.5,70,0.00,,,0.00,WUHU216HW,2013-01-20 23:00:00,
2013-01-20 17:05:00,9.2,1.4,30.55,WSW,248,6.3,10.5,70,0.00,,,0.00,WUHU216HW,2013-01-20 23:05:00,
2013-01-20 17:10:00,9.0,1.3,30.55,West,270,4.7,10.5,70,0.00,,,0.00,WUHU216HW,2013-01-20 23:10:00,
2013-01-20 17:15:00,9.0,1.3,30.55,West,270,5.6,10.5,70,0.00,,,0.00,WUHU216HW,2013-01-20 23:15:00,
2013-01-20 17:19:00,9.0,1.3,30.55,West,270,8.5,8.5,70,0.00,,,0.00,WUHU216HW,2013-01-20 23:19:00,
2013-01-20 17:20:00,9.0,1.3,30.55,West,270,8.5,8.5,70,0.00,,,0.00,WUHU216HW,2013-01-20 23:20:00,
2013-01-20 17:25:00,9.0,1.3,30.55,West,270,8.5,8.5,70,0.00,,,0.00,WUHU216HW,2013-01-20 23:25:00,
2013-01-20 18:04:00,9.0,1.8,30.54,West,270,9.4,9.4,72,0.00,,,0.00,WUHU216HW,2013-01-21 00:04:00,
2013-01-20 18:09:00,9.0,1.8,30.54,SW,225,3.1,10.5,72,0.00,,,0.00,WUHU216HW,2013-01-21 00:09:00,
2013-01-20 18:14:00,8.8,1.4,30.54,WNW,293,12.5,12.5,71,0.00,,,0.00,WUHU216HW,2013-01-21 00:14:00,
2013-01-20 18:19:00,8.6,0.9,30.54,NW,315,4.7,14.3,70,0.00,,,0.00,WUHU216HW,2013-01-21 00:19:00,
2013-01-20 18:24:00,8.6,0.9,30.54,West,270,13.0,14.3,70,0.00,,,0.00,WUHU216HW,2013-01-21 00:24:00,
2013-01-20 18:29:00,8.5,0.4,30.54,West,270,5.1,14.1,69,0.00,,,0.00,WUHU216HW,2013-01-21 00:29:00,
2013-01-20 18:34:00,8.3,0.2,30.54,West,270,6.0,13.0,69,0.00,,,0.00,WUHU216HW,2013-01-21 00:34:00,
2013-01-20 18:39:00,8.3,0.2,30.54,West,270,4.3,11.6,69,0.00,,,0.00,WUHU216HW,2013-01-21 00:39:00,
2013-01-20 18:44:00,8.1,-0.3,30.54,North,0,6.5,14.1,68,0.00,,,0.00,WUHU216HW,2013-01-21 00:44:00,
2013-01-20 18:49:00,8.1,-0.3,30.54,WNW,293,6.3,14.1,68,0.00,,,0.00,WUHU216HW,2013-01-21 00:49:00,
2013-01-20 18:54:00,7.9,-0.4,30.54,WNW,293,8.5,11.4,68,0.00,,,0.00,WUHU216HW,2013-01-21 00:54:00,
2013-01-20 18:59:00,7.7,-0.4,30.54,WSW,248,4.0,11.4,69,0.00,,,0.00,WUHU216HW,2013-01-21 00:59:00,
2013-01-20 19:04:00,7.6,-0.2,30.54,West,270,6.0,8.5,70,0.00,,,0.00,WUHU216HW,2013-01-21 01:04:00,
2013-01-20 19:09:00,7.4,-0.4,30.55,West,270,3.6,9.8,70,0.00,,,0.00,WUHU216HW,2013-01-21 01:09:00,
2013-01-20 19:14:00,7.4,-0.4,30.55,North,0,2.9,9.8,70,0.00,,,0.00,WUHU216HW,2013-01-21 01:14:00,
2013-01-20 19:19:00,7.2,-0.5,30.55,WNW,293,2.0,7.4,70,0.00,,,0.00,WUHU216HW,2013-01-21 01:19:00,
2013-01-20 19:24:00,6.8,-0.9,30.55,NNW,338,3.8,6.5,70,0.00,,,0.00,WUHU216HW,2013-01-21 01:24:00,
2013-01-20 19:29:00,6.8,-0.9,30.55,WNW,293,7.4,7.6,70,0.00,,,0.00,WUHU216HW,2013-01-21 01:29:00,
2013-01-20 19:34:00,6.7,-1.1,30.55,NNW,338,2.0,7.6,70,0.00,,,0.00,WUHU216HW,2013-01-21 01:34:00,
2013-01-20 19:39:00,6.5,-1.3,30.55,NNW,338,4.0,7.6,70,0.00,,,0.00,WUHU216HW,2013-01-21 01:39:00,
2013-01-20 19:44:00,6.1,-2.2,30.55,West,270,10.5,12.5,68,0.00,,,0.00,WUHU216HW,2013-01-21 01:44:00,
2013-01-20 19:49:00,5.9,-2.8,30.54,WNW,293,7.6,12.5,67,0.00,,,0.00,WUHU216HW,2013-01-21 01:49:00,
2013-01-20 19:54:00,5.8,-3.0,30.54,WNW,293,11.4,11.4,67,0.00,,,0.00,WUHU216HW,2013-01-21 01:54:00,
2013-01-20 19:59:00,5.6,-3.4,30.54,NNW,338,5.1,12.3,66,0.00,,,0.00,WUHU216HW,2013-01-21 01:59:00,
2013-01-20 20:04:00,5.4,-3.6,30.54,WNW,293,4.7,12.3,66,0.00,,,0.00,WUHU216HW,2013-01-21 02:04:00,
2013-01-20 20:09:00,5.2,-3.8,30.54,WSW,248,2.5,9.2,66,0.00,,,0.00,WUHU216HW,2013-01-21 02:09:00,
2013-01-20 20:14:00,5.2,-3.5,30.54,West,270,6.3,9.2,67,0.00,,,0.00,WUHU216HW,2013-01-21 02:14:00,
2013-01-20 20:19:00,5.0,-3.7,30.54,West,270,6.9,7.8,67,0.00,,,0.00,WUHU216HW,2013-01-21 02:19:00,
2013-01-20 20:24:00,4.9,-3.9,30.53,West,270,5.8,11.0,67,0.00,,,0.00,WUHU216HW,2013-01-21 02:24:00,
2013-01-20 20:29:00,4.7,-3.9,30.53,WNW,293,8.1,11.0,67,0.00,,,0.00,WUHU216HW,2013-01-21 02:29:00,
2013-01-20 20:34:00,4.7,-3.9,30.53,West,270,6.3,8.1,67,0.00,,,0.00,WUHU216HW,2013-01-21 02:34:00,
2013-01-20 20:39:00,4.7,-4.3,30.53,WNW,293,6.0,8.1,66,0.00,,,0.00,WUHU216HW,2013-01-21 02:39:00,
2013-01-20 20:44:00,4.5,-4.5,30.53,NW,315,5.1,8.5,66,0.00,,,0.00,WUHU216HW,2013-01-21 02:44:00,
2013-01-20 20:49:00,4.3,-4.7,30.53,NNW,338,1.6,8.5,66,0.00,,,0.00,WUHU216HW,2013-01-21 02:49:00,
2013-01-20 20:54:00,4.1,-4.5,30.53,NNW,338,4.5,7.6,67,0.00,,,0.00,WUHU216HW,2013-01-21 02:54:00,
2013-01-20 20:59:00,4.1,-4.5,30.53,WNW,293,3.4,7.6,67,0.00,,,0.00,WUHU216HW,2013-01-21 02:59:00,
2013-01-20 21:04:00,4.0,-4.7,30.53,North,0,2.5,7.4,67,0.00,,,0.00,WUHU216HW,2013-01-21 03:04:00,
2013-01-20 21:09:00,4.0,-4.7,30.53,NW,315,3.1,9.8,67,0.00,,,0.00,WUHU216HW,2013-01-21 03:09:00,
2013-01-20 21:14:00,3.8,-4.8,30.53,West,270,7.6,9.8,67,0.00,,,0.00,WUHU216HW,2013-01-21 03:14:00,
2013-01-20 21:19:00,3.4,-5.1,30.53,WNW,293,6.7,12.3,67,0.00,,,0.00,WUHU216HW,2013-01-21 03:19:00,
2013-01-20 21:24:00,3.2,-5.3,30.54,NNW,338,3.4,12.3,67,0.00,,,0.00,WUHU216HW,2013-01-21 03:24:00,
2013-01-20 21:29:00,3.1,-5.5,30.54,WSW,248,5.1,11.2,67,0.00,,,0.00,WUHU216HW,2013-01-21 03:29:00,
2013-01-20 21:34:00,2.9,-5.7,30.54,NNW,338,2.9,12.1,67,0.00,,,0.00,WUHU216HW,2013-01-21 03:34:00,
2013-01-20 21:39:00,2.9,-5.7,30.54,West,270,8.7,12.1,67,0.00,,,0.00,WUHU216HW,2013-01-21 03:39:00,
2013-01-20 21:44:00,2.5,-6.0,30.54,NNW,338,5.8,8.7,67,0.00,,,0.00,WUHU216HW,2013-01-21 03:44:00,
2013-01-20 21:49:00,2.3,-6.2,30.54,NNW,338,6.7,8.7,67,0.00,,,0.00,WUHU216HW,2013-01-21 03:49:00,
2013-01-20 21:54:00,2.0,-6.6,30.54,West,270,6.9,17.7,67,0.00,,,0.00,WUHU216HW,2013-01-21 03:54:00,
2013-01-20 21:59:00,1.8,-7.4,30.55,NNW,338,5.6,17.7,65,0.00,,,0.00,WUHU216HW,2013-01-21 03:59:00,
2013-01-20 22:04:00,1.6,-7.9,30.55,WNW,293,8.7,15.0,64,0.00,,,0.00,WUHU216HW,2013-01-21 04:04:00,
2013-01-20 22:09:00,1.4,-8.1,30.55,West,270,3.8,13.6,64,0.00,,,0.00,WUHU216HW,2013-01-21 04:09:00,
2013-01-20 22:14:00,1.3,-8.2,30.55,WSW,248,4.0,10.5,64,0.00,,,0.00,WUHU216HW,2013-01-21 04:14:00,
2013-01-20 22:19:00,1.3,-8.2,30.55,SW,225,4.7,11.4,64,0.00,,,0.00,WUHU216HW,2013-01-21 04:19:00,
2013-01-20 22:24:00,1.1,-8.4,30.56,NW,315,9.6,12.5,64,0.00,,,0.00,WUHU216HW,2013-01-21 04:24:00,
2013-01-20 22:29:00,1.1,-8.4,30.55,NNW,338,5.4,12.5,64,0.00,,,0.00,WUHU216HW,2013-01-21 04:29:00,
2013-01-20 22:34:00,0.9,-8.5,30.55,NW,315,8.1,13.6,64,0.00,,,0.00,WUHU216HW,2013-01-21 04:34:00,
2013-01-20 22:39:00,0.7,-8.7,30.55,West,270,7.6,13.6,64,0.00,,,0.00,WUHU216HW,2013-01-21 04:39:00,
2013-01-20 22:44:00,0.7,-8.5,30.55,NW,315,3.1,11.0,65,0.00,,,0.00,WUHU216HW,2013-01-21 04:44:00,
2013-01-20 22:49:00,0.5,-8.6,30.55,West,270,9.2,9.2,65,0.00,,,0.00,WUHU216HW,2013-01-21 04:49:00,
2013-01-20 22:54:00,0.4,-8.7,30.55,NW,315,5.8,12.8,65,0.00,,,0.00,WUHU216HW,2013-01-21 04:54:00,
2013-01-20 22:59:00,0.4,-8.7,30.55,WNW,293,6.3,12.8,65,0.00,,,0.00,WUHU216HW,2013-01-21 04:59:00,
2013-01-20 23:00:00,0.4,-8.7,30.55,West,270,5.4,12.8,65,0.00,,,0.00,WUHU216HW,2013-01-21 05:00:00,
2013-01-20 23:02:00,0.4,-8.7,30.55,NW,315,3.4,8.9,65,0.00,,,0.00,WUHU216HW,2013-01-21 05:02:00,
2013-01-20 23:03:00,0.4,-8.7,30.55,NNW,338,5.4,8.9,65,0.00,,,0.00,WUHU216HW,2013-01-21 05:03:00,
2013-01-20 23:08:00,0.4,-8.7,30.55,NNW,338,3.1,7.8,65,0.00,,,0.00,WUHU216HW,2013-01-21 05:08:00,
2013-01-20 23:13:00,0.2,-8.6,30.55,NNW,338,4.7,7.8,66,0.00,,,0.00,WUHU216HW,2013-01-21 05:13:00,
2013-01-20 23:18:00,0.0,-8.8,30.55,West,270,3.8,10.7,66,0.00,,,0.00,WUHU216HW,2013-01-21 05:18:00,
2013-01-20 23:23:00,0.0,-8.8,30.55,WSW,248,6.9,12.1,66,0.00,,,0.00,WUHU216HW,2013-01-21 05:23:00,
2013-01-20 23:28:00,-0.2,-9.0,30.55,WSW,248,6.3,12.1,66,0.00,,,0.00,WUHU216HW,2013-01-21 05:28:00,
2013-01-20 23:34:00,-0.4,-9.2,30.55,West,270,6.7,12.8,66,0.00,,,0.00,WUHU216HW,2013-01-21 05:34:00,
2013-01-20 23:39:00,-0.4,-9.2,30.55,WNW,293,3.4,12.8,66,0.00,,,0.00,WUHU216HW,2013-01-21 05:39:00,
2013-01-20 23:44:00,-0.5,-9.0,30.55,WNW,293,5.1,10.3,67,0.00,,,0.00,WUHU216HW,2013-01-21 05:44:00,
2013-01-20 23:49:00,-0.5,-9.0,30.55,West,270,6.3,12.1,67,0.00,,,0.00,WUHU216HW,2013-01-21 05:49:00,
2013-01-20 23:54:00,-0.7,-9.2,30.55,West,270,6.9,13.9,67,0.00,,,0.00,WUHU216HW,2013-01-21 05:54:00,
2013-01-20 23:59:00,-0.7,-9.2,30.55,WNW,293,4.7,13.9,67,0.00,,,0.00,WUHU216HW,2013-01-21 05:59:00,